[[{"header":{"parameterUnit":"m.s-1","parameterCategory":1,"la1":30.2991,"la2":30.254,"lo1":-89.0895,"lo2":-89.0444,"dy":0.0017,"dx":0.0017,"nx":28,"ny":28,"refTime":"2024-12-26T03:00:00:Z","depth":0,"parameterNumber":2,"parameterNumberName":"U-component_of_WINDS"},"data":[0,0,0,0,0,0,0,0,0,0,0,0,0,0,0,0,0,0,0,0,0,0,0,0,0,0,0,0,0,0,0,0,0,0,0,0,0,0,0,0,0,0,0,0,0,0,0,0,0,0,0,0,0,0,0,0,0,0,-7.583,-7.5831,0,-7.5933,-7.5934,-7.5935,-7.5884,-7.5882,-7.5879,-7.5877,-7.5978,-7.5983,-7.5988,0,0,0,0,0,0,0,0,0,0,0,0,0,-7.5588,-7.5593,-7.583,-7.5831,-7.5833,-7.5932,-7.5934,-7.5935,-7.5885,-7.5882,-7.5878,-7.5875,-7.5976,-7.5982,-7.5988,0,0,0,0,0,0,0,0,0,0,0,0,0,-7.5692,-7.5595,-7.583,-7.582,-7.582,-7.5932,-7.5934,-7.5936,-7.5886,-7.5882,-7.5878,-7.5874,-7.5974,-7.5982,-7.5989,-7.6116,0,0,-7.6013,-7.6016,0,0,0,0,0,0,0,0,-7.5687,-7.5701,-7.582,-7.582,-7.5821,-7.5892,-7.5886,-7.5996,-7.5887,-7.586,-7.5877,-7.5872,-7.5952,-7.5961,-7.5989,-7.6121,-7.6125,-7.6014,-7.6018,-7.6022,-7.6024,0,0,0,0,0,0,0,-7.5679,-7.5697,-7.587,-7.5821,-7.5822,-7.5809,-7.582,-7.5906,-7.5927,-7.5862,-7.5859,-7.5872,-7.5952,-7.5982,-7.5991,-7.6127,-7.6013,-7.602,-7.6025,-7.6028,-7.6369,-7.6373,0,0,0,0,0,0,-7.5673,-7.5691,-7.5867,-7.5873,-7.5743,-7.5817,-7.5828,-7.5873,-7.5926,-7.593,-7.5875,-7.5869,-7.5971,-7.5982,-7.5995,-7.6146,-7.6021,-7.6029,-7.6033,-7.6365,-7.637,-7.6375,0,0,0,0,0,0,-7.5668,-7.5689,-7.5863,-7.5781,-7.5803,-7.5825,-7.5876,-7.5877,-7.5907,-7.5936,-7.5939,-7.5902,-7.5968,-7.5984,-7.6087,-7.6149,-7.6032,-7.6039,-7.636,-7.6366,-7.6373,-7.645,0,0,0,0,0,0,-7.5661,-7.5688,-7.5736,-7.5783,-7.5807,-7.5954,-7.5879,-7.5882,-7.5921,-7.5914,-7.5962,-7.5966,-7.5966,-7.6076,-7.6095,-7.6157,-7.6045,-7.6354,-7.6363,-7.637,-7.6442,-7.6459,-7.6473,0,0,0,0,0,-7.5653,-7.5753,-7.5739,-7.576,-7.5868,-7.5958,-7.5971,-7.597,-7.5926,-7.5975,-7.5994,-7.5965,-7.614,-7.6087,-7.6107,-7.6173,-7.635,-7.636,-7.637,-7.6435,-7.6455,-7.6472,0,0,0,0,0,0,-7.571,-7.5759,-7.5743,-7.5862,-7.5907,-7.5949,-7.601,-7.5991,-7.6048,-7.6039,-7.6034,-7.6045,-7.6152,-7.6174,-7.6113,-7.63,-7.6238,-7.6253,-7.6281,-7.63,-7.6315,-7.6305,-7.6052,0,0,0,0,0,-7.5737,-7.5807,-7.5845,-7.5946,-7.5969,-7.5987,-7.6025,-7.6021,-7.6066,-7.6084,-7.611,-7.6154,-7.6219,-7.6262,-7.6323,-7.6447,-7.6456,-7.6503,-7.6519,-7.6531,-7.6542,-7.6609,-7.6629,-7.6408,-7.6408,-7.6407,0,0,-7.5792,-7.5828,-7.5871,-7.5958,-7.5992,-7.6063,-7.6002,-7.6079,-7.6131,-7.6095,-7.6193,-7.6216,-7.6265,-7.6379,-7.643,-7.64,-7.6607,-7.6544,-7.6553,-7.6558,-7.6621,-7.6642,-7.6661,-7.6414,-7.6413,-7.6412,0,0,-7.5928,-7.5963,-7.605,-7.6087,-7.614,-7.6151,-7.6173,-7.622,-7.6233,-7.6333,-7.6307,-7.637,-7.6482,-7.6518,-7.6551,-7.6706,-7.6681,-7.6727,-7.6805,-7.687,-7.6887,-7.6903,-7.6956,-7.6975,-7.6739,-7.6739,-7.6739,0,-7.5988,-7.6095,-7.6097,-7.6177,-7.6216,-7.619,-7.6278,-7.6313,-7.6383,-7.641,-7.6377,-7.6519,-7.655,-7.6671,-7.671,-7.6739,-7.6762,-7.6718,-7.6885,-7.6901,-7.6915,-7.6965,-7.6985,-7.6744,-7.6744,-7.6743,-7.6743,0,-7.6166,-7.6242,-7.6306,-7.6376,-7.6423,-7.6507,-7.6521,-7.6568,-7.6562,-7.6577,-7.668,-7.6718,-7.6786,-7.6816,-7.681,-7.6938,-7.6917,-7.6885,-7.6822,-7.6941,-7.6988,-7.7007,-7.6751,-7.675,-7.6748,-7.6747,0,0,-7.6334,-7.6409,-7.6432,-7.6464,-7.6523,-7.658,-7.6665,-7.6734,-7.6774,-7.6825,-7.6893,-7.6992,-7.6963,-7.7001,-7.6999,-7.7057,-7.7175,-7.7017,-7.7018,-7.7042,-7.7317,-7.7337,-7.736,-7.7162,-7.7166,-7.7169,-7.7312,0,-7.6471,-7.6618,-7.6624,-7.6757,-7.6826,-7.6806,-7.6879,-7.6923,-7.6941,-7.7001,-7.7021,-7.709,-7.7048,-7.7071,-7.7128,-7.7149,-7.723,-7.7139,-7.7223,-7.7226,-7.7206,-7.7385,-7.7406,-7.7539,-7.733,-7.7334,-7.7336,0,-7.6649,-7.6708,-7.6848,-7.69,-7.6929,-7.6994,-7.7059,-7.7118,-7.7169,-7.7178,-7.7223,-7.7214,-7.7299,-7.7239,-7.7355,-7.7294,-7.7329,-7.7346,-7.7351,-7.7354,-7.7284,-7.7389,-7.7582,-7.76,-7.7365,-7.7363,-7.7361,0,-7.6753,-7.6868,-7.6967,-7.6996,-7.7059,-7.7105,-7.7134,-7.7181,-7.7223,-7.728,-7.7307,-7.7374,-7.7409,-7.7461,-7.747,-7.7425,-7.7587,-7.7527,-7.7595,-7.7594,-7.7624,-7.7621,-7.7821,-7.7656,-7.7655,-7.7655,-7.7655,0,-7.6902,-7.6988,-7.7015,-7.7075,-7.7171,-7.7179,-7.7274,-7.7299,-7.7342,-7.7406,-7.7395,-7.7455,-7.7466,-7.7529,-7.7538,-7.7632,-7.7649,-7.7658,-7.7658,-7.7656,-7.7654,-7.7675,-7.7664,-7.766,-7.7659,-7.7658,-7.7657,0,-7.7032,-7.7054,-7.716,-7.7213,-7.7229,-7.7297,-7.7342,-7.74,-7.7419,-7.7501,-7.752,-7.755,-7.7624,-7.764,-7.7728,-7.7734,-7.7845,-7.7838,-7.7827,-7.7825,-7.7891,-7.7883,-7.8106,-7.8135,-7.7956,-7.7957,-7.7959,0,-7.7123,-7.7189,-7.7251,-7.7294,-7.7325,-7.7395,-7.7439,-7.7451,-7.7497,-7.7562,-7.7612,-7.7685,-7.7744,-7.7863,-7.7892,-7.7959,-7.7951,-7.8026,-7.7961,-7.7957,-7.7948,-7.7942,-7.7948,-7.8036,-7.8038,-7.8039,-7.804,0,-7.7281,-7.729,-7.7354,-7.7423,-7.7477,-7.7531,-7.7583,-7.7619,-7.7639,-7.7692,-7.7768,-7.7814,-7.7906,-7.7978,-7.8047,-7.8075,-7.806,-7.8062,-7.808,-7.8076,-7.8066,-7.8069,-7.7856,-7.8055,-7.8053,-7.8052,-7.8052,-7.8051,-7.7391,-7.7449,-7.7502,-7.7575,-7.7617,-7.7666,-7.7723,-7.7752,-7.7816,-7.7892,-7.7897,-7.798,-7.8031,-7.8122,-7.8156,-7.822,-7.8197,-7.8225,-7.8231,-7.8236,-7.824,-7.8061,-7.8234,-7.8233,-7.8233,-7.8233,-7.8232,0,-7.7545,-7.758,-7.7648,-7.7722,-7.778,-7.7766,-7.7824,-7.7872,-7.7946,-7.7997,-7.8056,-7.8145,-7.8216,-7.8253,-7.8324,-7.8368,-7.8364,-7.8386,-7.838,-7.8387,-7.8259,-7.8234,-7.8389,-7.8389,-7.8389,-7.8389,-7.8389,-7.8389,-7.7632,-7.7729,-7.7745,-7.7863,-7.7897,-7.7979,-7.8013,-7.806,-7.81,-7.82,-7.826,-7.8285,-7.833,-7.8405,-7.847,-7.8479,-7.8503,-7.8528,-7.8534,-7.8412,-7.8396,-7.838,-7.8357,-7.8535,-7.8535,-7.8655,-7.8657,-7.8657]},{"header":{"parameterUnit":"m.s-1","parameterCategory":1,"la1":30.2991,"la2":30.254,"lo1":-89.0895,"lo2":-89.0444,"dy":0.0017,"dx":0.0017,"nx":28,"ny":28,"refTime":"2024-12-26T03:00:00:Z","depth":0,"parameterNumber":3,"parameterNumberName":"V-component_of_WINDS"},"data":[0,0,0,0,0,0,0,0,0,0,0,0,0,0,0,0,0,0,0,0,0,0,0,0,0,0,0,0,0,0,0,0,0,0,0,0,0,0,0,0,0,0,0,0,0,0,0,0,0,0,0,0,0,0,0,0,0,0,1.8419,1.8419,0,1.8429,1.843,1.843,1.8423,1.8423,1.8423,1.8422,1.8429,1.843,1.843,0,0,0,0,0,0,0,0,0,0,0,0,0,1.8393,1.8394,1.8419,1.8419,1.8419,1.8429,1.843,1.843,1.8423,1.8423,1.8423,1.8422,1.8429,1.843,1.843,0,0,0,0,0,0,0,0,0,0,0,0,0,1.8404,1.8394,1.8419,1.8417,1.8417,1.8429,1.843,1.843,1.8423,1.8423,1.8423,1.8422,1.8429,1.843,1.843,1.8443,0,0,1.8433,1.8433,0,0,0,0,0,0,0,0,1.8403,1.8405,1.8417,1.8417,1.8417,1.8425,1.8423,1.8434,1.8424,1.8421,1.8422,1.8422,1.8428,1.8429,1.8432,1.8444,1.8444,1.8433,1.8433,1.8433,1.8434,0,0,0,0,0,0,0,1.8402,1.8404,1.8423,1.8418,1.8418,1.8416,1.8417,1.8425,1.8427,1.8421,1.8421,1.8422,1.8428,1.8431,1.8432,1.8444,1.8433,1.8433,1.8434,1.8434,1.8471,1.8472,0,0,0,0,0,0,1.8402,1.8404,1.8423,1.8423,1.8409,1.8417,1.8418,1.8423,1.8427,1.8427,1.8423,1.8422,1.843,1.8431,1.8432,1.845,1.8433,1.8434,1.8434,1.8471,1.8472,1.8472,0,0,0,0,0,0,1.8402,1.8404,1.8422,1.8413,1.8416,1.8418,1.8423,1.8423,1.8426,1.8428,1.8428,1.8426,1.843,1.8431,1.8442,1.845,1.8434,1.8435,1.847,1.8471,1.8472,1.8484,0,0,0,0,0,0,1.8401,1.8404,1.8408,1.8414,1.8416,1.8432,1.8424,1.8424,1.8428,1.8427,1.843,1.8431,1.8429,1.8441,1.8442,1.845,1.8435,1.8469,1.8471,1.8472,1.8483,1.8485,1.8487,0,0,0,0,0,1.84,1.841,1.8409,1.8411,1.8422,1.8432,1.8434,1.8433,1.8428,1.8434,1.8435,1.843,1.8449,1.8442,1.8444,1.8452,1.8469,1.847,1.8471,1.8482,1.8484,1.8487,0,0,0,0,0,0,1.8403,1.841,1.8409,1.8421,1.8427,1.8431,1.8437,1.8436,1.8441,1.844,1.8439,1.8439,1.8451,1.8453,1.8445,1.8467,1.8458,1.846,1.8465,1.8468,1.847,1.8469,1.8436,0,0,0,0,0,1.8405,1.8414,1.8419,1.8429,1.8432,1.8435,1.8439,1.8439,1.8444,1.8445,1.8448,1.8452,1.8459,1.8464,1.847,1.8483,1.8485,1.849,1.8492,1.8494,1.8495,1.8506,1.8509,1.8476,1.8476,1.8476,0,0,1.8409,1.8415,1.8419,1.843,1.8434,1.8443,1.8436,1.8445,1.8452,1.8446,1.8458,1.846,1.8465,1.8478,1.8484,1.8479,1.8505,1.8496,1.8497,1.8497,1.8507,1.851,1.8513,1.8477,1.8477,1.8477,0,0,1.8422,1.8426,1.8436,1.8442,1.8449,1.8452,1.8454,1.8461,1.8463,1.8475,1.8472,1.848,1.8491,1.8496,1.85,1.8519,1.8516,1.8521,1.8532,1.8542,1.8544,1.8547,1.8555,1.8558,1.8523,1.8523,1.8523,0,1.8426,1.8439,1.8441,1.8452,1.8457,1.8456,1.8467,1.8472,1.848,1.8484,1.848,1.8497,1.85,1.8516,1.8521,1.8524,1.8528,1.852,1.8544,1.8546,1.8548,1.8557,1.856,1.8523,1.8523,1.8523,1.8523,0,1.8445,1.8455,1.8462,1.8474,1.848,1.8491,1.8495,1.8501,1.8502,1.8505,1.8518,1.8523,1.8531,1.8535,1.8534,1.8552,1.8549,1.8544,1.8536,1.8552,1.856,1.8563,1.8524,1.8524,1.8524,1.8524,0,0,1.8456,1.8472,1.8475,1.8482,1.8492,1.85,1.8511,1.8522,1.8529,1.8535,1.8546,1.8558,1.8555,1.856,1.856,1.8568,1.8587,1.8563,1.8563,1.8568,1.8609,1.8613,1.8616,1.8585,1.8585,1.8586,1.8609,0,1.847,1.8492,1.8496,1.8515,1.8525,1.8526,1.8537,1.8545,1.8549,1.8558,1.8562,1.8572,1.8566,1.857,1.8578,1.8582,1.8595,1.8581,1.8595,1.8595,1.8594,1.862,1.8623,1.8644,1.8612,1.8612,1.8613,0,1.8489,1.85,1.852,1.8533,1.8538,1.8547,1.8559,1.8568,1.8578,1.8581,1.8588,1.8588,1.8602,1.8593,1.8612,1.8603,1.8609,1.8612,1.8613,1.8614,1.8605,1.8623,1.8651,1.8655,1.8617,1.8617,1.8616,0,1.8497,1.8517,1.8532,1.8538,1.8553,1.856,1.8566,1.8576,1.8583,1.8594,1.8599,1.861,1.8616,1.8625,1.8629,1.8623,1.8649,1.864,1.8652,1.8652,1.8656,1.8656,1.8687,1.866,1.8659,1.8659,1.8659,0,1.8512,1.8525,1.8537,1.8546,1.8562,1.8567,1.8582,1.8588,1.8598,1.8609,1.861,1.8621,1.8625,1.8636,1.8639,1.8656,1.8658,1.8661,1.8661,1.8661,1.8661,1.8665,1.8664,1.866,1.866,1.866,1.866,0,1.8523,1.8531,1.8549,1.8563,1.8568,1.8578,1.8591,1.86,1.8606,1.8621,1.8625,1.8633,1.8647,1.8653,1.8668,1.8671,1.869,1.8689,1.8688,1.8688,1.87,1.8699,1.8735,1.874,1.8709,1.8709,1.8709,0,1.8532,1.8543,1.856,1.8569,1.8576,1.8589,1.8599,1.8605,1.8615,1.8629,1.8638,1.8653,1.8665,1.8687,1.8695,1.8708,1.8708,1.8719,1.8709,1.871,1.8709,1.8709,1.8711,1.8721,1.8721,1.8721,1.8722,0,1.8548,1.8553,1.8567,1.8583,1.8594,1.8607,1.8619,1.8626,1.8635,1.8645,1.8661,1.8671,1.869,1.8705,1.8719,1.8726,1.8726,1.8725,1.8729,1.8729,1.8728,1.873,1.8693,1.8724,1.8724,1.8724,1.8723,1.8723,1.8559,1.857,1.8585,1.8601,1.8612,1.8624,1.8636,1.8645,1.8659,1.8676,1.8679,1.8697,1.871,1.873,1.8737,1.8751,1.8748,1.8753,1.8754,1.8755,1.8757,1.8726,1.8754,1.8754,1.8753,1.8753,1.8753,0,1.8577,1.8588,1.8602,1.8621,1.8635,1.8636,1.8651,1.8662,1.8678,1.8691,1.8704,1.8724,1.874,1.875,1.8767,1.8776,1.8777,1.878,1.8779,1.8781,1.8758,1.8754,1.8779,1.8779,1.8779,1.8779,1.8779,1.8779,1.8587,1.8607,1.8614,1.864,1.865,1.8669,1.8678,1.869,1.8701,1.8724,1.8738,1.8746,1.8759,1.8777,1.8792,1.8794,1.8801,1.8805,1.8807,1.8785,1.8782,1.878,1.8776,1.8806,1.8806,1.8829,1.883,1.883]}]]